Weather observations for the past three days for
Plainview, Hale County Airport
Imperial (Metric)
Date Time (cdt) Wind (mph) Vis. (mi.) Weather Sky Cond. Temperature (ºF) Relative Humidity Wind Chill (°F) Heat Index (°F) Pressure Precipitation (in)
Air Dwpt 6 hour altimeter (in) sea level (mb) 1 hr 3 hr 6 hr
Max. Min.
06 20:50 E 14 G 20 10.00 Fair CLR 57.2 35.8 45% 30.01 0.0
06 20:30 E 14 10.00 Fair CLR 57.9 36.1 44% 29.99 0.0
06 20:10 E 17 G 22 10.00 Fair CLR 59.4 36.1 42% 29.98 0.0
06 19:50 E 18 G 25 10.00 Fair CLR 61 36 39% 29.97 0.0
06 19:30 E 20 G 25 10.00 Fair CLR 63 36 37% 29.96 0.0
06 19:10 E 18 10.00 Fair CLR 64.9 36.1 35% 29.95 0.0
06 18:50 E 21 G 26 10.00 Fair and Breezy CLR 66.2 36 68.5 57.9 33% 29.95 0.0
06 18:30 E 14 G 18 10.00 Fair CLR 67.3 36 32% 29.94 0.0
06 18:10 E 12 G 20 10.00 Fair CLR 67.5 35.4 31% 29.94 0.0
06 17:50 E 13 G 18 10.00 Fair CLR 67.6 35.6 31% 29.94 0.0
06 17:30 E 7 G 17 10.00 Fair CLR 67.1 35.4 31% 29.94 0.0
06 17:10 E 8 10.00 Partly Cloudy SCT070 67.1 35.2 31% 29.94 0.0
06 16:50 SE 13 10.00 Fair CLR 67.3 35.6 31% 29.95 0.0
06 16:10 SE 7 10.00 Partly Cloudy SCT075 65.8 35.2 32% 29.96 0.0
06 15:50 Calm 10.00 Partly Cloudy SCT075 65.8 36 33% 29.97 0.0
06 15:30 NE 3 10.00 Fair CLR 64.4 35.8 35% 29.97 0.0
06 15:10 E 8 10.00 Fair CLR 64.4 36.1 35% 29.98 0.0
06 14:50 E 9 10.00 Fair CLR 63.7 35.8 36% 29.99 0.0
06 14:30 S 9 G 17 10.00 Fair CLR 62.6 36.9 39% 29.99 0.0
06 14:10 SE 7 10.00 Fair CLR 61.7 36.9 40% 29.99 0.0
06 13:50 SE 5 10.00 Fair CLR 61 36.7 41% 29.99 0.0
06 13:30 E 6 10.00 Fair CLR 59.5 36.9 43% 30 0.0
06 13:10 E 10 10.00 Fair CLR 58.3 36.9 45% 30.01 0.0
06 12:50 E 7 10.00 Fair CLR 58.3 37 58.8 41.9 45% 30.02 0.0
06 12:30 E 12 10.00 Fair CLR 56.5 36.9 48% 30.02 0.0
06 12:10 E 13 G 16 10.00 Fair CLR 55.9 36.7 49% 30.02 0.0
06 11:50 E 9 10.00 Fair CLR 55.9 36.3 48% 30.02 0.0
06 11:10 E 10 10.00 Fair CLR 52.5 35.8 53% 30.02 0.0
06 10:50 E 12 10.00 Fair CLR 51.8 36 55% 30.01 0.0
06 10:30 E 14 G 18 10.00 Fair CLR 51.1 35.6 56% 30.01 0.0
06 10:10 E 12 10.00 Fair CLR 49.5 34.3 56% 45 30.01 0.0
06 09:50 E 13 G 16 10.00 Fair CLR 48.6 33.6 56% 44 30.01 0.0
06 09:30 E 13 G 18 10.00 Fair CLR 47.1 33.3 59% 42 30.01 0.0
06 09:10 E 10 G 17 10.00 Partly Cloudy SCT022 46.9 33.4 60% 43 30.02 0.0
06 08:50 E 13 10.00 Fair CLR 45.1 33.1 63% 40 30.01 0.0
06 08:30 E 9 10.00 Partly Cloudy SCT016 44.2 33.4 66% 40 30 0.0
06 07:50 NE 12 10.00 Overcast OVC014 42.4 35.6 77% 37 30 0.0
06 07:30 E 12 10.00 Overcast OVC012 42.3 36 78% 36 30 0.0
06 07:10 E 13 10.00 Overcast OVC010 41.9 36.7 82% 36 30 0.0
06 06:50 E 13 10.00 Overcast OVC010 42.4 37.6 46.9 41.9 83% 36 30 0.0
06 06:30 E 13 10.00 Overcast OVC012 43.2 37.8 81% 37 29.99 0.0
06 06:10 NE 10 G 20 10.00 Overcast OVC012 43.7 37.6 79% 39 29.99 0.0
06 05:50 NE 15 10.00 Overcast OVC012 43.7 37.6 79% 37 29.97 0.0
06 05:30 E 16 10.00 Overcast OVC012 43.7 37.4 79% 37 29.96 0.0
06 05:10 E 13 10.00 Overcast OVC012 43.3 37.4 80% 37 29.96 0.0
06 04:30 E 12 G 17 10.00 Mostly Cloudy BKN014 42.3 36.7 81% 36 29.94 0.0
06 04:10 E 13 10.00 Partly Cloudy SCT014 41.9 36.5 81% 36 29.92 0.0
06 03:50 E 10 10.00 Mostly Cloudy BKN014 42.3 36.5 80% 37 29.92 0.0
06 03:30 E 13 10.00 Fair CLR 42.1 36.1 80% 36 29.92 0.0
06 03:10 NE 13 G 17 10.00 Fair CLR 42.8 36 77% 37 29.92 0.0
06 02:50 E 15 10.00 Fair CLR 43.5 36.1 75% 37 29.92 0.0
06 02:30 E 13 10.00 Fair CLR 44.1 36.9 76% 38 29.91 0.0
06 02:10 E 15 10.00 Fair CLR 45 37.2 74% 39 29.92 0.0
06 01:50 E 16 10.00 Fair CLR 45.7 37.4 73% 39 29.91 0.0
06 01:30 E 10 10.00 Fair CLR 46 37.4 72% 42 29.9 0.0
06 01:10 E 14 10.00 Fair CLR 46.4 37.4 71% 41 29.88 0.0
06 00:50 E 14 10.00 Fair CLR 47.1 37.6 69.8 47.1 70% 42 29.87 0.0
06 00:30 E 13 10.00 Fair CLR 47.8 37.8 68% 43 29.86 0.0
06 00:10 E 16 10.00 Fair CLR 48.6 37.9 67% 43 29.88 0.0
05 23:50 E 16 10.00 Fair CLR 49.3 38.1 66% 44 29.87 0.0
05 23:30 E 17 10.00 Fair CLR 50.4 38.7 64% 29.86 0.0
05 23:10 E 18 G 23 10.00 Fair CLR 51.4 39.4 64% 29.87 0.0
05 22:50 E 16 10.00 Fair CLR 52.7 39.7 62% 29.88 0.0
05 22:30 NE 16 10.00 Fair CLR 53.8 40.1 60% 29.88 0.0
05 22:10 E 18 G 22 10.00 Fair CLR 55.2 40.1 57% 29.87 0.0
05 21:50 E 14 10.00 Fair CLR 56.7 40.1 54% 29.86 0.0
05 21:30 E 15 G 23 10.00 Fair CLR 58.1 40.1 51% 29.84 0.0
05 20:50 E 15 G 21 10.00 Mostly Cloudy BKN100 60.4 40.1 47% 29.81 0.0
05 20:30 E 20 G 24 10.00 Mostly Cloudy BKN110 61.7 40.3 45% 29.79 0.0
05 20:10 E 20 10.00 Light Rain SCT110 62.6 41.2 46% 29.77 0.0
05 19:50 SE 15 G 20 10.00 Partly Cloudy SCT110 65.3 39.4 39% 29.77 0.0
05 19:30 E 17 G 21 10.00 Fair CLR 66.4 39.2 37% 29.76 0.0
05 19:10 E 15 10.00 Partly Cloudy SCT090 SCT110 68 38.3 34% 29.75 0.0
05 18:50 E 13 10.00 Overcast SCT075 OVC090 70.5 38.1 73.8 68 31% 29.77 0.0
05 18:30 E 13 10.00 Overcast SCT075 OVC090 69.6 38.1 32% 29.77 0.0
05 18:10 E 6 10.00 Mostly Cloudy BKN100 70.7 37 29% 29.78 0.0
05 17:50 E 8 10.00 Partly Cloudy SCT110 70.9 37.2 29% 29.77 0.0
05 17:30 E 3 G 16 10.00 Fair CLR 72.9 36.3 26% 29.76 0.0
05 17:10 E 12 10.00 Fair CLR 73.4 37 27% 29.77 0.0
05 16:50 E 10 G 17 10.00 Fair CLR 72.7 37.2 28% 29.78 0.0
05 16:30 N 7 10.00 Fair CLR 73.4 36.1 26% 29.79 0.0
05 16:10 NE 8 10.00 Fair CLR 71.8 36.1 27% 29.8 0.0
05 15:50 E 7 10.00 Fair CLR 71.8 35.8 27% 29.81 0.0
05 15:30 Calm 10.00 Fair CLR 70.7 35.6 28% 29.82 0.0
05 15:10 N 7 G 17 10.00 Fair CLR 71.6 36 27% 29.82 0.0
05 14:50 N 10 10.00 Fair CLR 69.8 35.4 28% 29.82 0.0
05 14:30 NE 6 10.00 Fair CLR 69.6 34.9 28% 29.83 0.0
05 14:10 N 9 G 16 10.00 Fair CLR 70 35.4 28% 29.83 0.0
05 13:50 N 10 G 17 10.00 Fair CLR 70.3 35.1 27% 29.82 0.0
05 13:30 N 6 10.00 Fair CLR 69.6 34.2 27% 29.83 0.0
05 13:10 N 13 G 18 10.00 Fair CLR 68.4 34.9 29% 29.83 0.0
05 12:50 N 10 G 23 10.00 Fair CLR 69.6 34.9 69.6 57.7 28% 29.83 0.0
05 12:30 N 13 G 20 10.00 Fair CLR 67.1 34.3 30% 29.84 0.0
05 12:10 N 15 G 20 10.00 Fair CLR 67.6 34.7 30% 29.82 0.0
05 11:50 N 13 G 20 10.00 Fair CLR 65.1 34.9 33% 29.83 0.0
05 11:30 N 15 G 22 10.00 Fair CLR 63.7 34.7 34% 29.83 0.0
05 11:10 N 15 10.00 Fair CLR 62.2 34.7 36% 29.84 0.0
05 10:50 N 17 10.00 Fair CLR 63.7 35.1 35% 29.84 0.0
05 10:30 N 15 G 20 10.00 Fair CLR 61.7 35.1 37% 29.83 0.0
05 10:10 N 12 G 18 10.00 Partly Cloudy SCT110 61.5 36.1 39% 29.84 0.0
05 09:50 N 15 G 18 10.00 Fair CLR 60.8 36.9 41% 29.81 0.0
05 09:30 N 17 10.00 Fair CLR 60.6 37.4 42% 29.8 0.0
05 09:10 N 17 10.00 Fair CLR 60.1 38.1 44% 29.8 0.0
05 08:50 N 15 10.00 Fair CLR 59.2 38.8 47% 29.79 0.0
05 08:30 N 13 G 18 10.00 Fair CLR 58.6 39.2 49% 29.79 0.0
05 08:10 N 15 G 18 10.00 Fair CLR 58.6 39.4 49% 29.78 0.0
05 07:50 N 18 G 23 10.00 Fair CLR 58.5 39.2 49% 29.78 0.0
05 07:10 N 13 10.00 Fair CLR 62.6 30.2 30% 29.74 0.0
05 06:50 NW 13 10.00 Fair CLR 64.4 29.3 68.9 64.4 27% 29.74 0.0
05 06:30 NW 14 10.00 Fair CLR 66.7 28.6 24% 29.72 0.0
05 05:50 W 16 10.00 Fair CLR 66.6 28.8 24% 29.7 0.0
05 05:30 W 16 G 22 10.00 Fair CLR 68 28.2 23% 29.71 0.0
05 05:10 W 18 G 24 10.00 Fair CLR 68.9 28.2 22% 29.7 0.0
05 04:50 W 16 10.00 Fair CLR 67.5 28.8 23% 29.69 0.0
05 04:30 W 17 10.00 Fair CLR 67.3 29.3 24% 29.69 0.0
05 04:10 W 14 10.00 Fair CLR 67.8 29.7 24% 29.69 0.0
05 03:50 W 13 10.00 Fair CLR 67.3 30.2 25% 29.69 0.0
05 03:30 W 16 10.00 Fair CLR 67.3 30.2 25% 29.68 0.0
05 03:10 W 14 10.00 Fair CLR 65.7 30.9 27% 29.69 0.0
05 02:50 W 12 10.00 Fair CLR 65.7 31.1 28% 29.69 0.0
05 02:30 SW 13 10.00 Fair CLR 65.8 31.1 27% 29.7 0.0
05 02:10 SW 13 10.00 Fair CLR 66 31.1 27% 29.7 0.0
05 01:50 SW 13 10.00 Fair CLR 66.4 31.1 27% 29.7 0.0
05 01:30 SW 13 10.00 Fair CLR 67.5 30.9 26% 29.71 0.0
05 01:10 SW 10 10.00 Fair CLR 68 31.1 25% 29.71 0.0
05 00:50 SW 9 10.00 Fair CLR 69.3 31.1 81.5 68.9 24% 29.71 0.0
05 00:30 SW 10 10.00 Fair CLR 70 30.7 23% 29.71 0.0
05 00:10 SW 8 10.00 Fair CLR 69.1 31.1 24% 29.72 0.0
04 23:50 SW 8 10.00 Fair CLR 68.9 31.1 25% 29.72 0.0
04 23:30 SW 12 10.00 Fair CLR 70 31.1 24% 29.72 0.0
04 23:10 SW 12 10.00 Fair CLR 70.7 30.7 23% 29.72 0.0
04 22:50 SW 10 10.00 Fair CLR 70.2 30.4 23% 29.72 0.0
04 22:30 SW 9 10.00 Fair CLR 70.7 29.1 21% 29.72 0.0
04 22:10 SW 13 10.00 Fair CLR 72.5 30.2 21% 29.72 0.0
04 21:30 SW 8 10.00 Fair CLR 72.3 31.6 22% 29.71 0.0
04 21:10 SW 12 10.00 Fair CLR 73.9 32 21% 29.7 0.0
04 20:50 SW 15 10.00 Fair CLR 76.1 32 20% 76 29.7 0.0
04 20:10 SW 17 10.00 Fair CLR 78.1 32 19% 77 29.69 0.0
04 19:50 SW 16 G 22 10.00 Fair CLR 79.3 32.9 19% 78 29.68 0.0
04 19:30 SW 16 G 22 10.00 Fair CLR 80.6 32.2 17% 79 29.68 0.0
04 19:10 SW 17 G 26 10.00 Fair CLR 81.5 32.9 17% 79 29.69 0.0
04 18:50 SW 20 G 28 10.00 Fair CLR 81.9 33.8 85.8 81.9 18% 80 29.69 0.0
04 18:30 SW 23 G 29 10.00 Fair and Breezy CLR 82.8 34.2 17% 80 29.69 0.0
04 18:10 SW 21 G 31 10.00 Fair and Breezy CLR 84 33.3 16% 81 29.69 0.0
04 17:30 W 14 G 23 10.00 Fair CLR 84.6 32.4 15% 82 29.69 0.0
04 17:10 W 14 10.00 Fair CLR 84 33.3 16% 81 29.7 0.0
04 16:50 W 15 G 22 10.00 Fair CLR 84.2 35.6 18% 81 29.71 0.0
04 16:30 W 14 10.00 Fair CLR 84.4 35.1 17% 81 29.72 0.0
04 16:10 W 14 G 23 10.00 Fair CLR 84.6 35.8 17% 82 29.73 0.0
04 15:30 W 13 G 22 10.00 Fair CLR 84.2 36.1 18% 81 29.74 0.0
04 15:10 W 14 G 24 10.00 Fair CLR 84.2 35.6 18% 81 29.75 0.0
04 14:50 W 18 G 25 10.00 Fair CLR 83.7 35.4 18% 81 29.77 0.0
04 14:30 SW 14 G 23 10.00 Fair CLR 83.7 38.3 20% 81 29.77 0.0
04 14:10 W 10 G 23 10.00 Fair CLR 84.7 37 18% 82 29.77 0.0
04 13:50 W 18 G 22 10.00 Fair CLR 84.6 37.2 18% 82 29.78 0.0
04 13:30 W 17 G 23 10.00 Fair CLR 83.3 38.7 20% 81 29.79 0.0
04 13:10 W 15 G 23 10.00 Fair CLR 82.4 41 23% 80 29.8 0.0
04 12:50 NW 20 10.00 Fair CLR 82.6 40.6 82.6 50.9 23% 80 29.81 0.0
04 12:30 W 17 G 28 10.00 Fair CLR 82 41.2 23% 80 29.83 0.0
04 12:10 W 21 G 26 10.00 Fair and Breezy CLR 81.5 41.9 25% 80 29.84 0.0
04 11:50 W 21 G 28 10.00 Fair and Breezy CLR 79.5 42.1 26% 79 29.84 0.0
04 11:30 W 21 G 25 10.00 Fair and Breezy CLR 78.3 43 29% 78 29.85 0.0
04 11:10 W 18 G 23 10.00 Fair CLR 77 42.8 30% 78 29.85 0.0
04 10:30 W 17 G 23 10.00 Fair CLR 73 45.9 38% 29.85 0.0
04 10:10 W 13 G 21 10.00 Fair CLR 69.1 45.7 43% 29.86 0.0
04 09:50 W 14 10.00 Fair CLR 67.8 46 46% 29.86 0.0
04 09:30 W 14 10.00 Fair CLR 64.9 46.2 51% 29.86 0.0
04 09:10 W 12 10.00 Fair CLR 61.9 46.2 57% 29.86 0.0
04 08:50 W 14 10.00 Fair CLR 59.4 46.2 62% 29.87 0.0
04 08:30 W 9 10.00 Fair CLR 57.2 45.7 66% 29.86 0.0
04 08:10 SW 9 10.00 Fair CLR 55.2 45.1 69% 29.86 0.0
04 07:50 SW 6 10.00 Fair CLR 53.2 44.6 73% 29.85 0.0
04 07:30 SW 3 10.00 Fair CLR 51.6 43.9 75% 29.85 0.0
04 07:10 W 3 10.00 Fair CLR 50.9 43.3 75% 29.84 0.0
04 06:50 SW 5 10.00 Fair CLR 52 43.7 61 51.8 74% 29.84 0.0
04 06:30 W 3 10.00 Fair CLR 52.9 44.1 72% 29.84 0.0
04 06:10 SW 6 10.00 Fair CLR 54.1 44.6 70% 29.84 0.0
04 05:50 SW 8 10.00 Fair CLR 54.9 44.6 69% 29.84 0.0
04 05:30 SW 10 10.00 Fair CLR 55.4 44.8 68% 29.84 0.0
04 05:10 SW 10 10.00 Fair CLR 55.8 44.6 66% 29.85 0.0
04 04:50 SW 10 G 16 10.00 Fair CLR 56.3 44.6 65% 29.85 0.0
04 04:30 SW 10 10.00 Fair CLR 56.8 44.6 64% 29.86 0.0
04 04:10 SW 13 G 17 10.00 Fair CLR 57.2 44.4 63% 29.86 0.0
04 03:50 SW 10 10.00 Fair CLR 57.2 43.9 61% 29.86 0.0
04 03:30 SW 13 G 18 10.00 Fair CLR 57.6 43.5 60% 29.87 0.0
04 03:10 SW 12 10.00 Fair CLR 57.6 43 58% 29.88 0.0
04 02:50 SW 13 10.00 Fair CLR 58.3 43.2 57% 29.88 0.0
04 02:30 SW 16 G 23 10.00 Fair CLR 59.9 43.3 55% 29.88 0.0
04 02:10 SW 16 G 22 10.00 Fair CLR 60.4 43 53% 29.89 0.0
04 01:50 SW 16 G 20 10.00 Fair CLR 61 42.8 51% 29.91 0.0
04 01:30 SW 14 G 21 10.00 Fair CLR 60.8 41.7 50% 29.91 0.0
04 01:10 SW 13 10.00 Fair CLR 60.1 41.2 50% 29.91 0.0
04 00:50 S 12 10.00 Fair CLR 58.6 40.3 73.9 58.3 51% 29.91 0.0
04 00:30 S 9 10.00 Fair CLR 59 40.1 50% 29.91 0.0
04 00:10 S 9 10.00 Fair CLR 60.3 40.1 48% 29.92 0.0
03 23:50 S 8 10.00 Fair CLR 59.9 39.4 47% 29.93 0.0
03 23:30 S 9 10.00 Fair CLR 60.8 39.2 45% 29.93 0.0
03 23:10 S 9 10.00 Fair CLR 62.1 39.2 43% 29.94 0.0
03 22:50 S 12 10.00 Fair CLR 63 38.7 41% 29.94 0.0
03 22:30 S 9 10.00 Fair CLR 63.9 39.2 40% 29.94 0.0
03 22:10 S 10 10.00 Fair CLR 64 38.3 39% 29.93 0.0
03 21:50 S 8 10.00 Fair CLR 64.9 38.3 38% 29.93 0.0
03 21:30 S 8 10.00 Partly Cloudy SCT090 66 37.8 35% 29.93 0.0
Date Time (cdt) Wind (mph) Vis. (mi.) Weather Sky Cond. Air Dwpt Max. Min. Relative Humidity Wind Chill (°F) Heat Index (°F) altimeter (in) sea level (mb) 1 hr 3 hr 6 hr
6 hour
Temperature (ºF) Pressure Precipitation (in)